Regional Weather Roundup
Issued by NWS Green Bay, WI

Home | Current Version | Previous Version | Graphics & Text | Print | Product List | Glossary Off
Versions: 1 2 3 4 5 6 7 8 9 10 11 12 13 14 15 16 17 18 19 20 21 22 23 24 25 26 27 28 29 30 31 32 33 34 35 36 37 38 39 40 41 42 43 44 45 46 47 48 49 50

000
ASUS43 KGRB 192259
RWRGRB

NORTH-CENTRAL AND NORTHEAST WISCONSIN REGIONAL WEATHER ROUNDUP
NATIONAL WEATHER SERVICE GREEN BAY WI
600 PM CDT FRI SEP 19 2014

WIZ005-009-010>012-018-019-200000-
NORTH CENTRAL WISCONSIN

CITY           SKY/WX    TMP DP  RH WIND       PRES   REMARKS
IRONWOOD       CLOUDY    66  55  68 S16G29    29.66S
MANITOWISH WTR NOT AVBL
ARBOR VITAE    NOT AVBL
EAGLE RIVER    NOT AVBL
LAND O LAKES   NOT AVBL
RHINELANDER    CLOUDY    65  53  65 SW14G20   29.79R
PHILLIPS       CLOUDY    65  55  71 S9        29.75S
ANTIGO         NOT AVBL
TOMAHAWK       NOT AVBL
MERRILL        NOT AVBL
$$

WIZ013-073-200000-
NORTHEAST WISCONSIN

CITY           SKY/WX    TMP DP  RH WIND       PRES   REMARKS
IRON MOUNTAIN  MOCLDY    67  51  56 S18G28    29.75F
MARINETTE      MOCLDY    64  54  68 S14G21    29.81F
$$

WIZ017-030-035>037-045-200000-
CENTRAL WISCONSIN

CITY           SKY/WX    TMP DP  RH WIND       PRES   REMARKS
MEDFORD        NOT AVBL
WAUSAU         PTSUNNY   69  52  54 S15G33    29.77S
MOSINEE        NOT AVBL
MARSHFIELD     SUNNY     70  55  59 S13G23    29.78R
WISC RAPIDS    SUNNY     72  53  51 S21G31    29.81F
STEVENS POINT  NOT AVBL
WAUPACA        NOT AVBL
SHAWANO        PTCLDY    72  51  48 S9G20     29.81F
CLINTONVILLE   PTCLDY    70  50  49 S20       29.81F
$$

WIZ038-039-048-051-200000-
FOX VALLEY

CITY           SKY/WX    TMP DP  RH WIND       PRES   REMARKS
NWS GREEN BAY  PTCLDY    70  51  51 S17G29    29.84F
APPLETON       MOCLDY    70  48  46 S21G32    29.86F
OSHKOSH        PTCLDY    70  51  51 S23G30    29.86F
FOND DU LAC    PTCLDY    70  48  45 S20G30    29.88F
$$

WIZ022-050-052-200000-
EAST CENTRAL WISCONSIN

CITY           SKY/WX    TMP DP  RH WIND       PRES   REMARKS
STURGEON BAY   MOCLDY    63  52  67 S24G32    29.85F
MANITOWOC      NOT AVBL
SHEBOYGAN      PTCLDY    65  51  60 S20G29    29.92F
$$

LMZ563-521-522-541>543-200000-
LAKESHORE

STATION/POSITION TIME  TEMP    WIND        PRES    VSBY  WAVE
                       AIR SEA DIR/SP/G                  HT/PER
                 (UTC) (F)     (DEG/KT/KT) (MB)    (MI)  (FT/S)
SHEBOYGAN LKSHOR 2200   59 56  180/ 21/ 23 1014.0F
KEWAUNEE LKSHORE 2200   59     180/ 19/ 22 1011.5F
NORTHPORT PIER   2200   61     160/ 13/ 22 1011.9F
S GREEN BAY BUOY 2200   64     VRB 16/ 17  1011.9F
CHAMBERS ISLAND  2200   63     150/ 10/ 17 1011.2S
MENOMINEE LKSHOR 2200   63     170/ 13/ 20 1010.5F
$$


USA.gov is the U.S. government's official web portal to all federal, state and local government web resources and services.